ARTEMIS

Last updated on Fri Nov 24 2017 00:18:48 GMT+0000 (Coordinated Universal Time)

1 26863U 01029A 17327.71993767 .00000079 00000-0 00000+0 0 9991 2 26863 12.8696 31.4100 0006800 124.5137 230.7111 0.99288277 61032
UTC large
Height (km)
Speed (km/s)
/
Latitude / Longitude
Inclination (degrees)
Orbital Period (minutes)
Azimuth
Elevation
Range (km)
Doppler Factor

Next 0 passes for location: London (51.5072 / 0.1276)

Sorry there are no passes over London.
ARTEMIS